Home > Weather > Hefei > Past weeks

Flag for China Past Weather in Hefei, Anhui, China — Yesterday and Last 2 Weeks

Now
72 °F

Fog.


Feels Like: 65 °F
Forecast: 74 / 92 °F
Wind: 6 mph from Southeast

Location: Hefei Airport

Current Time: Jun 29, 2016 at 8:09:02 AM

Latest Report: Jun 29, 2016 at 7:00 AM


Visibility: 2 mi

Pressure: 29.77 "Hg

Humidity: 100%

Dew Point: 72 °F

Location of HefeiLocation

Past Weather in Hefei — Graph

°F

Hefei Temperature Yesterday

Maximum temperature yesterday: 75 °F (at 4:00 PM)
Minimum temperature yesterday: 68 °F (at 3:00 AM)
Average temperature yesterday: 71 °F

High & Low Weather Summary for the Past Weeks

 TemperatureHumidityPressure
High97 °F (Jun 23, 1:00 PM)100% (Jun 20, 3:00 PM)29.89 "Hg (Jun 20, 3:00 PM)
Low64 °F (Jun 26, 5:00 AM)35% (Jun 17, 11:00 AM)29.47 "Hg (Jun 14, 2:00 PM)
Average77 °F83%29.69 "Hg
* Reported Jun 14 7:00 AM — Jun 29 7:00 AM, Hefei, Weather by CustomWeather, © 2016

Note: Actual official high and low records may vary slightly from our data, if they occured in-between our weather recording intervals... More about our weather records

Advertising

Hefei Weather History for the Previous 24 Hours

Scroll right to see more
 ConditionsComfort  
Time TempWeatherWind HumidityBarometerVisibility
7:00 AM
Wed, Jun 29
72 °FFog.6 mph100%29.77 "Hg2 mi
6:00 AM72 °FFog.3 mph94%29.77 "Hg1 mi
5:00 AM72 °FFog.1 mph100%29.74 "Hg1 mi
4:00 AM72 °FFog.3 mph94%29.74 "Hg1 mi
3:00 AM72 °FFog.No wind94%29.74 "Hg2 mi
2:00 AM72 °FFog.1 mph94%29.77 "Hg2 mi
1:00 AM72 °FFog.1 mph94%29.77 "Hg2 mi
12:00 AM72 °FFog.3 mph94%29.77 "Hg2 mi
11:00 PM
Tue, Jun 28
72 °FFog.8 mph94%29.77 "Hg2 mi
10:00 PM72 °FFog.6 mph100%29.77 "Hg3 mi
9:00 PM73 °FFog.8 mph94%29.74 "Hg3 mi
8:00 PM73 °FMostly cloudy.10 mph94%29.74 "Hg4 mi
7:00 PM73 °FMostly cloudy.8 mph94%29.74 "Hg4 mi
6:00 PM73 °FMostly cloudy.8 mph94%29.74 "HgN/A
5:00 PM75 °FMostly cloudy.6 mph89%29.74 "Hg5 mi
4:00 PM75 °FFog.8 mph94%29.74 "Hg2 mi
3:00 PM73 °FFog.6 mph94%29.74 "Hg2 mi
2:00 PM73 °FFog.6 mph94%29.77 "Hg1 mi
1:00 PM72 °FLight rain. Fog.1 mph94%29.77 "Hg1 mi
12:00 PM72 °FLight rain. Fog.3 mph94%29.77 "Hg1 mi
11:00 AM72 °FLight rain. Fog.3 mph94%29.77 "Hg1 mi
10:00 AM72 °FFog.3 mph94%29.77 "Hg2 mi
9:00 AM70 °FFog.6 mph100%29.74 "Hg1 mi
8:00 AM70 °FFog.6 mph100%29.74 "Hg1 mi
Weather by CustomWeather, © 2016

See weather overviewHow to use our weather pages